Location: Shepherdstown, WV
(39.4326°N, 77.8042°W)
Time: 01:32:27
(UTC-04:00)

Tiangong - Pass Details

Date: 23 June 2021
Orbit: 374 x 386 km, 41.5° (Epoch: 27 July)

Event Time Altitude Azimuth Distance (km) Brightness Sun altitude
Exits shadow 03:30:55 54° 113° (ESE) 463 1.4 -19.4°
Drops below altitude 10° 03:33:35 10° 78° (ENE) 1,392 4.5 -19.1°
Sets 03:35:40 0° 75° (ENE) 2,249 5.7 -18.9°
